Location: Pabrico
(37.5827°N, 122.0063°W)
Time: 09:45:37
(UTC+00:00)

Cosmos 2278 Rocket - Pass Details

Date: 13 April 2024
Orbit: 839 x 846 km, 71.0° (Epoch: 24 May)

Event Time Altitude Azimuth Distance (km) Brightness Sun altitude
Rises 12:24:12 0° 327° (NNW) 3,413 5.3 -14.2°
Reaches altitude 10° 12:26:52 10° 318° (NW) 2,473 4.4 -13.7°
Maximum altitude 12:31:50 32° 257° (WSW) 1,415 2.8 -12.8°
Drops below altitude 10° 12:36:46 10° 195° (SSW) 2,457 4.3 -11.9°
Sets 12:39:26 0° 186° (S) 3,387 5.1 -11.4°
